OneWeb SL0269

operational
NORAD ID: 48987 Int'l Des: 2021-060 Owner: ONEWEBN Country: UK Constellation: oneweb
LEOCIRCULARPOLARONEWEB_TYPE

Über OneWeb SL0269

Beschreibung wird geladen...

Live-Position

3D-Globus wird geladen...

Nächste Überflüge

Höhenverlauf

Altitude vs Time

uPlot chart will show altitude changes over time

Zweizeiliger Elementsatz

1 48987U 21060W 25352.82530372 .00000007 00000-0 -14818-4 0 9996
2 48987 87.9036 264.7155 0001728 81.6907 278.4420 13.16591952215894
Epoch: 18. Dez. 2025 • Age: 8 hours

Aktueller Status

Höhe 1199.9 km
Geschwindigkeit 7.25 km/s
Subsatellitenpunkt 10.80°N, 63.15°W
Startdatum 1. Juli 2021
Alter 4.4 years
Typ internet

Technische Details

Klassifizierung Payload
Masse 148.00 kg
Trockenmasse 140.00 kg
Gesamtmasse 148.00 kg
Länge 1.30 m
Durchmesser 1.00 m
Spannweite 5.00 m
Form Trapezoid+2 pan
Hersteller ONEWUS
Bus-Typ ARROW
Phasenstatus In Orbit
Besitzer/Staat ONEWEBN/UK

Große Konstellationen

Loading constellations...